Tracking 31032 objects as of 14-Jul-2025
HD Live streaming from Space Station
objects crossing your sky now

SL-24 R/B

Track SL-24 R/B now!
10-day predictions


NORAD ID: 40541
Int'l Code: 2015-014C
Perigee: 529.7 km
Apogee: 1,430.6 km
Inclination: 97.4 °
Period: 104.5 minutes
Semi major axis: 7351 km
RCS: Unknown
Launch date: March 25, 2015
Source: Commonwealth of Independent States (former USSR) (CIS)
Launch site: Orenburg, Russia (OREN)

Note: This is a ROCKET BODY
Your satellite tracking list
Your tracking list is empty




NASA's NSSDC Master Catalog

Two Line Element Set (TLE):
1 40541U 15014C   25194.96946819  .00000291  00000-0  77964-4 0  9997
2 40541  97.3704  78.4360 0612764 115.3710 251.2176 13.77436775517229
Source of the keplerian elements: AFSPC